TimeAKDT,TemperatureF,Dew PointF,Humidity,Sea Level PressureIn,VisibilityMPH,Wind Direction,Wind SpeedMPH,Gust SpeedMPH,PrecipitationIn,Events,Conditions,WindDirDegrees,DateUTC
12:53 AM,57.9,48.9,72,29.99,10.0,Calm,Calm,-,N/A,,Mostly Cloudy,0,2013-06-17 08:53:00
1:53 AM,57.9,48.0,70,29.99,10.0,Calm,Calm,-,N/A,,Mostly Cloudy,0,2013-06-17 09:53:00
2:53 AM,57.9,48.9,72,29.97,10.0,Calm,Calm,-,N/A,,Mostly Cloudy,0,2013-06-17 10:53:00
3:53 AM,57.0,48.9,74,29.96,10.0,ENE,5.8,-,N/A,,Mostly Cloudy,70,2013-06-17 11:53:00
4:53 AM,57.9,50.0,75,29.95,10.0,Calm,Calm,-,N/A,,Overcast,0,2013-06-17 12:53:00
5:53 AM,57.9,48.9,72,29.97,10.0,Variable,3.5,-,0.00,Rain,Light Rain,0,2013-06-17 13:53:00
6:53 AM,61.0,51.1,70,29.95,10.0,WSW,6.9,-,0.00,,Mostly Cloudy,250,2013-06-17 14:53:00
7:53 AM,63.0,50.0,63,29.94,10.0,SW,3.5,-,N/A,,Mostly Cloudy,230,2013-06-17 15:53:00
8:53 AM,64.9,51.1,61,29.93,10.0,WSW,8.1,-,N/A,,Scattered Clouds,250,2013-06-17 16:53:00
9:53 AM,69.1,48.9,49,29.91,10.0,Variable,3.5,-,N/A,,Partly Cloudy,0,2013-06-17 17:53:00
10:53 AM,71.1,48.9,45,29.89,10.0,SW,6.9,-,N/A,,Partly Cloudy,230,2013-06-17 18:53:00
11:53 AM,73.9,48.9,41,29.88,10.0,WSW,5.8,-,N/A,,Partly Cloudy,240,2013-06-17 19:53:00
12:53 PM,75.9,50.0,40,29.86,10.0,SW,10.4,-,N/A,,Partly Cloudy,230,2013-06-17 20:53:00
1:53 PM,78.1,51.1,39,29.84,10.0,WSW,8.1,-,N/A,,Partly Cloudy,240,2013-06-17 21:53:00
2:53 PM,80.1,50.0,35,29.82,10.0,WSW,9.2,-,N/A,,Partly Cloudy,250,2013-06-17 22:53:00
3:53 PM,78.1,52.0,40,29.80,10.0,SW,4.6,-,N/A,,Mostly Cloudy,230,2013-06-17 23:53:00
4:53 PM,73.0,43.0,34,29.83,10.0,West,5.8,-,0.00,Thunderstorm,Thunderstorm,260,2013-06-18 00:53:00
5:00 PM,73.9,44.1,34,29.83,10.0,NNW,8.1,19.6,N/A,Thunderstorm,Thunderstorm,330,2013-06-18 01:00:00
5:12 PM,73.9,44.1,34,29.85,10.0,WNW,12.7,21.9,N/A,,Mostly Cloudy,300,2013-06-18 01:12:00
5:25 PM,71.1,42.1,35,29.88,10.0,North,18.4,35.7,0.00,Rain-Thunderstorm,Light Thunderstorms and Rain,10,2013-06-18 01:25:00
5:37 PM,69.1,44.1,40,29.88,10.0,East,9.2,18.4,0.00,Rain-Thunderstorm,Light Thunderstorms and Rain,80,2013-06-18 01:37:00
5:53 PM,64.9,50.0,58,29.91,10.0,East,11.5,-,0.00,Rain-Thunderstorm,Light Thunderstorms and Rain,100,2013-06-18 01:53:00
6:13 PM,66.0,48.0,52,29.90,10.0,SE,9.2,-,0.00,,Overcast,140,2013-06-18 02:13:00
6:53 PM,63.0,51.1,65,29.90,10.0,ESE,9.2,-,0.00,,Overcast,110,2013-06-18 02:53:00
7:53 PM,64.9,48.9,56,29.90,10.0,ENE,6.9,-,N/A,,Overcast,60,2013-06-18 03:53:00
8:53 PM,64.9,48.0,54,29.92,10.0,NE,3.5,-,N/A,,Overcast,40,2013-06-18 04:53:00
9:53 PM,64.0,48.9,58,29.93,10.0,SW,4.6,-,0.00,,Overcast,230,2013-06-18 05:53:00
10:53 PM,59.0,50.0,72,29.93,10.0,ENE,9.2,-,N/A,,Overcast,70,2013-06-18 06:53:00
11:53 PM,62.1,44.1,52,29.94,10.0,NNE,3.5,-,N/A,,Overcast,30,2013-06-18 07:53:00